Location: Newark
(49.7697°N, 2.7094°E)
Time: 10:15:51
(UTC+00:00)

N. Korean satellite - Visible Passes

Search period start: 28 January 2020 00:00
Search period end: 07 February 2020 00:00
Orbit: 454 x 507 km, 97.2° (Epoch: 27 January)

Date Brightness Start Highest point End Pass type
(mag) Time Alt. Az. Time Alt. Az. Time Alt. Az.
28 Jan 10.1 04:29:02 10° ENE 04:30:08 11° E 04:31:14 10° ESE visible
28 Jan 6.5 06:00:22 10° N 06:03:56 67° WNW 06:07:32 10° SSW visible
29 Jan 7.1 05:34:51 10° NNE 05:38:25 61° E 05:42:02 10° S visible
29 Jan 9.8 17:49:24 10° SW 17:51:26 15° W 17:53:30 10° NW visible
30 Jan 8.5 05:09:35 10° NNE 05:12:50 31° E 05:16:07 10° SSE visible
30 Jan 7.7 06:43:12 10° NNW 06:46:07 23° WNW 06:49:02 10° WSW visible
30 Jan 8.9 17:22:44 10° SSW 17:25:44 28° W 17:28:46 10° NW visible
31 Jan 9.6 04:44:43 10° NE 04:47:09 17° E 04:49:37 10° SE visible
31 Jan 6.9 06:17:18 10° N 06:20:44 42° WNW 06:24:12 10° SW visible
01 Feb 6.5 05:51:39 10° NNE 05:55:17 84° WNW 05:58:58 10° SSW visible
02 Feb 7.6 05:26:13 10° NNE 05:29:45 48° E 05:33:19 10° S visible
02 Feb 9.7 17:40:12 10° SW 17:42:41 18° W 17:45:12 10° NW visible
03 Feb 8.9 05:01:03 10° NE 05:04:09 25° E 05:07:15 10° SSE visible
03 Feb 7.5 06:34:21 10° N 06:37:30 28° WNW 06:40:41 10° SW visible
04 Feb 9.9 04:36:24 10° NE 04:38:25 14° E 04:40:27 10° ESE visible
04 Feb 6.7 06:08:33 10° N 06:12:07 53° WNW 06:15:42 10° SSW visible
05 Feb 6.7 05:42:57 10° NNE 05:46:38 78° ESE 05:50:19 10° S visible
05 Feb 10.1 17:58:10 10° WSW 17:59:41 12° W 18:01:11 10° WNW visible
06 Feb 8.1 05:17:35 10° NNE 05:21:04 39° E 05:24:33 10° SSE visible
06 Feb 9.4 17:31:07 10° SSW 17:33:55 23° W 17:36:46 10° NW visible
